Regional Weather Roundup
Issued by NWS

Home | Current Version | Previous Version | Text Only | Print | Product List | Glossary Off
Versions: 1 2 3 4 5 6 7 8 9 10 11 12 13 14 15 16 17 18 19 20 21 22 23 24 25 26 27 28 29 30 31 32 33 34 35 36 37 38 39 40 41 42 43 44 45 46 47 48 49 50

000
ASUS43 KDMX 212207
RWRIA

WEATHER ROUNDUP FOR IOWA
NATIONAL WEATHER SERVICE DES MOINES IA
500 PM CDT THU AUG 21 2014

NOTE: "FAIR" INDICATES FEW OR NO CLOUDS BELOW 12,000 FEET WITH NO
SIGNIFICANT WEATHER AND/OR OBSTRUCTIONS TO VISIBILITY.

* - THESE STATIONS ARE NOT NWS STATIONS...THUS NOT UNDER NWS
QUALITY CONTROL.  THEY ALSO DO NOT REPORT WEATHER SUCH
AS PRECIPITATION OR FOG.

IAZ001>003-012>014-020>022-031>034-043>046-212300-
   NORTHWEST IOWA

CITY           SKY/WX    TMP DP  RH WIND       PRES   REMARKS
CARROLL *      SUNNY     84  73  70 SW13G20   29.84S HX  91
CHEROKEE *     MOSUNNY   88  77  70 SW9       29.82S HX 100
DENISON *      SUNNY     86  73  66 S10G18    29.82S HX  93
LE MARS *      SUNNY     88  75  66 W7        29.82S HX  97
ORANGE CITY *  SUNNY     88  72  58 W7        29.83S HX  94
SHELDON *      MOSUNNY   86  77  74 W8        29.82R HX  97
SIOUX CITY     SUNNY     91  75  59 NW5       29.81R HX 101
SPENCER        MOSUNNY   87  74  64 SW14      29.83R HX  95
STORM LAKE *   MOSUNNY   86  79  79 SW10      29.85R HX  99
$$

IAZ055>058-069>071-079>083-090>094-212300-
   SOUTHWEST IOWA

CITY           SKY/WX    TMP DP  RH WIND       PRES   REMARKS
ATLANTIC *     MOSUNNY   86  75  70 SE7       29.84F HX  95
AUDUBON *      SUNNY     88  79  74 S8        29.86F HX 102
CLARINDA *     SUNNY     90  79  70 VRB6G12   29.84F HX 105
COUNCIL BLFS *   N/A     90  75  62 SW7       29.83S HX 100
CRESTON *      MOSUNNY   86  77  74 S8        29.88F HX  97
HARLAN  *      SUNNY     86  73  66 SW7       29.87F HX  93
LAMONI         PTSUNNY   87  75  67 S12       29.87F HX  96
RED OAK *      SUNNY     88  77  70 E6        29.84S HX 100
SHENANDOAH *   SUNNY     90  79  70 SE7       29.82F HX 105
$$

IAZ047>049-059>061-072>074-084-212300-
   CENTRAL IOWA

CITY           SKY/WX    TMP DP  RH WIND       PRES   REMARKS
AMES           SUNNY     86  74  67 S14       29.85R HX  94
ANKENY *       MOSUNNY   86  75  70 S17G23    29.85R HX  95
CHARITON *     MOSUNNY   86  77  74 SW8       29.88S HX  97
DES MOINES     MOSUNNY   87  74  64 SW15      29.85S HX  95
GRINNELL*      PTSUNNY   82  72  69 S12       29.88R HX  87
KNOXVILLE *    SUNNY     84  75  74 S9        29.86S HX  92
MARSHALLTOWN   SUNNY     83  73  72 S21       29.85R HX  89
PELLA *        MOSUNNY   84  77  79 S6        29.88S HX  94
PERRY *          N/A     84  72  65 SW13G20   29.85S HX  89
$$

IAZ004>006-015-016-023>025-035-036-212300-
   NORTH CENTRAL IOWA

CITY           SKY/WX    TMP DP  RH WIND       PRES   REMARKS
ALGONA *       SUNNY     86  73  66 SW13G20   29.83R HX  93
CLARION *      MOSUNNY   88  72  58 SW14G20   29.84R HX  94
ESTHERVILLE    SUNNY     86  73  65 SW10      29.82R HX  93
FORT DODGE *   PTSUNNY   86  73  66 SW13G22   29.84S HX  93
MASON CITY     MOSUNNY   89  71  55 SW15      29.85R HX  95
FOREST CITY *  PTSUNNY   86  72  62 S10G17    29.83R HX  92
IOWA FALLS *     N/A     86  72  62 S14       29.86R HX  92
$$

IAZ007>011-017>019-026>030-037>042-050>054-066-212300-
   NORTHEAST IOWA

CITY           SKY/WX    TMP DP  RH WIND       PRES   REMARKS
CEDAR RAPIDS   CLOUDY    79  75  87 SE10      29.87S HX  83
CHARLES CITY * PTSUNNY   84  73  70 S10       29.86R HX  91
CLINTON *      CLOUDY    75  73  94 S8        29.93R
DECORAH *      PTSUNNY   81  73  78 VRB7      29.86S HX  85
DUBUQUE        CLOUDY    75  73  93 S14       29.89F
MONTICELLO *   MOSUNNY   77  73  88 S8G14     29.88R
OELWEIN *      MOSUNNY   79  72  78 S15       29.87R HX  82
WATERLOO       MOSUNNY   85  71  63 S22       29.83R HX  90
$$

IAZ064-065-067-068-078-212300-
   EAST CENTRAL IOWA

CITY           SKY/WX    TMP DP  RH WIND       PRES   REMARKS
DAVENPORT      LGT RAIN  77  73  87 CALM      29.93R
IOWA CITY      PTSUNNY   80  77  90 SE10      29.89F HX  87
MT. PLEASANT * PTSUNNY   88  72  58 E7        29.90R HX  94
MUSCATINE *    MOSUNNY   86  73  66 SE9       29.90R HX  93
QUAD CITIES    CLOUDY    82  72  71 E8        29.90S HX  87
$$

IAZ062-063-075>077-085>089-095>099-212300-
   SOUTHEAST IOWA

CITY           SKY/WX    TMP DP  RH WIND       PRES   REMARKS
BURLINGTON     LGT RAIN  87  76  69 SE5       29.90S HX  97
FAIRFIELD *    SUNNY     86  75  70 SE10      29.89S HX  95
FORT MADISON * SUNNY     90  79  70 SE3       29.91R HX 105
KEOKUK *       SUNNY     88  77  70 S7        29.88F HX 100
OSKALOOSA *    PTSUNNY   84  75  74 SE7       29.88R HX  92
CENTERVILLE *  MOSUNNY   84  77  79 S8        29.90F HX  94
OTTUMWA        MOSUNNY   85  75  72 S10       29.87R HX  93
WASHINGTON *   MOSUNNY   84  75  74 SE8       29.89F HX  92
$$

ABBREVIATIONS USED IN REMARKS
   TC - TEMPERATURES IN CELSIUS
  WCI - WIND CHILL INDEX
   HX - HEAT INDEX
  VSB - VISIBILITY
$$



USA.gov is the U.S. government's official web portal to all federal, state and local government web resources and services.